Airfield :
LOGIN :

Register | Disclaimer

   EN    FR    IT 

 










Legend :    VFR   Marginal VFR   IFR   Intensive IFR   Very Intensive IFR
Visi :
Ceiling :
>= 8 km
>= 3000ft
5 to 8 km
1000 to 3000 ft
1500m to 5 km
500 to 1000 ft
800 to 1500m
200 to 500 ft
< 800m
< 200 ft
Symbols :   Thunderstorms  Fog  Heavy snow  Heavy precipitations  Wind > 20 kt
SIGMETs :     Misc.  Thunderstorms  Icing  Turbulence  Mountain Waves  Volcanic Ashes







- Airport Elevation : 464 ft
- IATA code : EVX
- Download approach charts


LFOE - Evreux

CURRENT METAR :
  • 252300Z AUTO 05010KT CAVOK M02/M11 Q1024

EXPIRED METARs :
  • 252230Z AUTO 06011KT CAVOK M02/M11 Q1024
  • 252200Z AUTO 07010KT CAVOK M02/M11 Q1023
  • 252130Z AUTO 06011KT CAVOK M02/M11 Q1023
  • 252100Z AUTO 06011KT CAVOK M01/M11 Q1023
  • 252030Z AUTO 05010KT CAVOK M01/M10 Q1023

TAF TAF LFOE
Valid from the 25 at 21:00 until the 26 at 21:00 UTC


252000Z 2521/2621 05012KT CAVOK
No reported NOTAMs for that airfield.



MET'MAP, your aeronautical weather chart ! - Copyright ORBIFLY December 2007 - Disclaimer

ORBIFLY MET'MAP TEAM :

Programming & Development : Alexandra Zaïnal
Concept & Development : Baudouin d'Aumeries
Co-Development & Prog : Marc-Olivier Méhu
Technical & hardware support : Manuel Goepfert

Contact : metmap@orbifly.com




SOURCES & CREDITS :

   NOAA